Flag for U.S.A. Weather past 2 weeks in Topeka, Kansas, U.S.A.

Now
84 °F

Sunny.


Feels Like: 90 °F
Forecast: 72 / 91 °F
Wind: 12 mph from East

Location: Philip Billard Municipal Airport

Current Time: Aug 27, 2014 at 12:12:56 PM

Latest Report: Aug 27, 2014 at 11:53 AM


Visibility: 10 mi

Pressure: 30.09 "Hg

Humidity: 67%

Dew point: 72 °F

Location of TopekaLocation

Historic Weather in Topeka — Graph

°F

Topeka temperature yesterday

Maximum temperature yesterday: 92 °F (at 2:53 PM)
Minimum temperature yesterday: 71 °F (at 5:53 AM)
Average temperature yesterday: 81 °F

Past Weeks' High & Low Weather Summary

 TemperatureHumidityPressure
High100 °F (Aug 23, 3:53 PM)100% (Aug 17, 3:53 AM)30.16 "Hg (Aug 17, 3:53 AM)
Low56 °F (Aug 13, 6:53 AM)26% (Aug 23, 6:53 PM)29.66 "Hg (Aug 19, 4:53 AM)
Average81 °F66%29.90 "Hg
* Reported Aug 12 9:53 AM — Aug 27 9:53 AM, Topeka, Weather by CustomWeather, © 2014

Note: Actual official high and low records may vary slightly from our data, if they occured in-between our weather recording intervals... More about our weather records

Advertising

Topeka weather history for previous 24 hours

 ConditionsComfort  
Time TempWeatherWind HumidityBarometerVisibility
9:53 AM
Aug 27
79 °FScattered clouds.7 mph82%30.10 "Hg10 mi
8:53 AM77 °FScattered clouds.6 mph85%30.10 "Hg10 mi
7:53 AM76 °FBroken clouds.3 mph85%30.06 "Hg10 mi
6:53 AM76 °FOvercast.6 mph88%30.04 "Hg10 mi
5:53 AM76 °FClear.3 mph88%30.02 "Hg10 mi
4:53 AM76 °FPassing clouds.3 mph94%30.01 "Hg10 mi
3:53 AM78 °FPassing clouds.6 mph90%30.02 "Hg10 mi
2:53 AM79 °FClear.3 mph88%30.03 "Hg10 mi
1:53 AM79 °FClear.3 mph88%30.04 "Hg10 mi
12:53 AM79 °FClear.3 mph88%30.05 "Hg10 mi
11:53 PM
Aug 26
79 °FClear.3 mph84%30.04 "Hg10 mi
10:53 PM79 °FClear.5 mph82%30.04 "Hg10 mi
9:53 PM78 °FClear.5 mph79%30.05 "Hg10 mi
8:53 PM78 °FSunny.5 mph84%30.04 "Hg10 mi
7:53 PM80 °FLight rain. Broken clouds.No wind69%30.03 "Hg10 mi
6:53 PM85 °FSunny.7 mph65%30.00 "Hg10 mi
5:53 PM88 °FSunny.8 mph57%29.98 "Hg10 mi
4:53 PM92 °FSunny.10 mph52%30.00 "Hg10 mi
3:53 PM92 °FSunny.8 mph51%30.01 "Hg10 mi
2:53 PM92 °FSunny.9 mph47%30.04 "Hg10 mi
1:53 PM89 °FSunny.8 mph52%30.06 "Hg10 mi
12:53 PM87 °FSunny.10 mph51%30.07 "Hg10 mi
Weather by CustomWeather, © 2014

See weather overviewHow to use our weather pages